sat.trackr.live / text

‹ back to catalog

ONEWEB-0117

NORAD 47263 · 2020-100F

PAYLOAD ACTIVE UNKNOWN

§ Identity

Operator
Country
UK
Launch date
2020-12-18
Launch site
VOSTO
Launch vehicle
Mass (kg)
RCS (m²)

Purposes: comms

External: N2YO · Heavens-Above · Gunter

§ Orbital elements

Epoch: 2026-09-20T03:17:46.383360Z

Period
109.72 min
Inclination
87.8984°
Eccentricity
0.0001898
Mean motion
13.12442320 rev/d
Perigee alt
1,212.3 km
Apogee alt
1,215.2 km
Semi-major
7,591.9 km
B*
-7.6075e-4
RAAN
331.8031°
Arg perigee
98.5142°
Mean anomaly
261.6202°
Rev number
27,698

§ Raw data

ONEWEB-01171 47263U 20100F   26263.13734240 -.00000261  00000+0 -76075-3 0  99962 47263  87.8984 331.8031 0001898  98.5142 261.6202 13.12442320276985

JSON: /api/v1/satellites/47263 · /tle

For live sub-satellite position, see the globe view (requires WebGL).

§ Visibility from observer

Set your observer location to see the next 7 days of passes ≥ 10°. The values pass through the URL so the page stays shareable.

No JS? Fill the form by hand. The geolocation button needs JavaScript.